SUMZM 07FA-MYBS

Flight info

Callsign SUMZM
Flight time 0h 37m
Altitude 13000
Route FROGG DCT GIZZZ DCT NEKNE DCT KLADA DCT ZBV
Aircraft PC12/L-SDFGRWY/S

Departure

Time 2026-05-04 16:00
Airport Ocean Reef Club Airport (07FA)

Arrival

Time 2026-05-04 16:37
Airport South Bimini Airport (MYBS)
Time Latitude Longitude Altitude Speed Heading
2026-05-04 15:47 25.32480 -80.27499 15 ft 0 kts 314°
2026-05-04 15:55 25.32487 -80.27521 8 ft 9 kts 249°
2026-05-04 15:55 25.32411 -80.27592 8 ft 20 kts 220°
2026-05-04 15:55 25.32278 -80.27708 6 ft 28 kts 216°
2026-05-04 15:56 25.32129 -80.27843 9 ft 28 kts 223°
2026-05-04 15:56 25.31992 -80.27948 11 ft 15 kts 203°
2026-05-04 15:56 25.31970 -80.27995 12 ft 8 kts 352°
2026-05-04 15:56 25.32013 -80.27938 11 ft 10 kts 37°
2026-05-04 15:57 25.32018 -80.27933 10 ft 0 kts 37°
2026-05-04 15:59 25.32045 -80.27911 10 ft 25 kts 36°
2026-05-04 15:59 25.32360 -80.27644 6 ft 84 kts 41°
2026-05-04 15:59 25.32864 -80.27187 228 ft 100 kts 34°
2026-05-04 15:59 25.33473 -80.26736 570 ft 110 kts 26°
2026-05-04 16:00 25.34119 -80.26193 930 ft 122 kts 37°
2026-05-04 16:00 25.34792 -80.25555 1295 ft 135 kts 38°
2026-05-04 16:00 25.35290 -80.24614 1684 ft 154 kts 69°
2026-05-04 16:00 25.35610 -80.23420 2062 ft 168 kts 70°
2026-05-04 16:01 25.35983 -80.22148 2439 ft 178 kts 66°
2026-05-04 16:01 25.36426 -80.20837 2799 ft 188 kts 66°
2026-05-04 16:01 25.36901 -80.19472 3175 ft 193 kts 66°
2026-05-04 16:01 25.37390 -80.18069 3534 ft 198 kts 66°
2026-05-04 16:02 25.37891 -80.16624 3900 ft 202 kts 66°
2026-05-04 16:02 25.38397 -80.15163 4272 ft 205 kts 67°
2026-05-04 16:02 25.39444 -80.12143 5021 ft 214 kts 68°
2026-05-04 16:03 25.39979 -80.10600 5381 ft 216 kts 68°
2026-05-04 16:03 25.40520 -80.09041 5746 ft 218 kts 68°
2026-05-04 16:03 25.41066 -80.07466 6112 ft 219 kts 68°
2026-05-04 16:03 25.41612 -80.05889 6483 ft 220 kts 68°
2026-05-04 16:04 25.42161 -80.04303 6829 ft 222 kts 68°
2026-05-04 16:04 25.43260 -80.01128 7542 ft 223 kts 68°
2026-05-04 16:04 25.43818 -79.99514 7912 ft 226 kts 68°
2026-05-04 16:05 25.44382 -79.97884 8269 ft 228 kts 67°
2026-05-04 16:05 25.44947 -79.96246 8635 ft 229 kts 67°
2026-05-04 16:05 25.46087 -79.92946 9376 ft 231 kts 67°
2026-05-04 16:06 25.46659 -79.91288 9763 ft 232 kts 67°
2026-05-04 16:06 25.47917 -79.86682 10707 ft 237 kts 80°
2026-05-04 16:07 25.48269 -79.84292 11185 ft 240 kts 78°
2026-05-04 16:07 25.49276 -79.78757 12271 ft 247 kts 78°
2026-05-04 16:08 25.49607 -79.76887 12643 ft 248 kts 78°
2026-05-04 16:08 25.50658 -79.70988 12999 ft 276 kts 78°
2026-05-04 16:09 25.51410 -79.66747 12722 ft 277 kts 78°
2026-05-04 16:09 25.52138 -79.62633 12068 ft 267 kts 78°
2026-05-04 16:10 25.52838 -79.58695 11441 ft 259 kts 78°
2026-05-04 16:11 25.53852 -79.52967 10509 ft 245 kts 78°
2026-05-04 16:11 25.54175 -79.51145 10211 ft 242 kts 78°
2026-05-04 16:12 25.55133 -79.45721 9242 ft 234 kts 78°
2026-05-04 16:12 25.56055 -79.40486 8275 ft 231 kts 78°
2026-05-04 16:13 25.56668 -79.37001 7651 ft 231 kts 78°
2026-05-04 16:13 25.57280 -79.33526 7030 ft 229 kts 78°
2026-05-04 16:14 25.57789 -79.30626 6519 ft 227 kts 78°
2026-05-04 16:14 25.58384 -79.27226 5880 ft 223 kts 78°
2026-05-04 16:15 25.59083 -79.22179 4844 ft 223 kts 99°
2026-05-04 16:16 25.56944 -79.20083 3943 ft 223 kts 172°
2026-05-04 16:16 25.52802 -79.21739 2446 ft 222 kts 198°
2026-05-04 16:17 25.49975 -79.21304 1949 ft 185 kts 163°
2026-05-04 16:18 25.46300 -79.20269 1809 ft 186 kts 166°
2026-05-04 16:18 25.45039 -79.19911 1891 ft 192 kts 167°
2026-05-04 16:19 25.40959 -79.18740 1901 ft 212 kts 166°
2026-05-04 16:19 25.38200 -79.17663 1886 ft 207 kts 137°
2026-05-04 16:20 25.38689 -79.14208 1909 ft 167 kts 14°
2026-05-04 16:20 25.40917 -79.13627 1885 ft 160 kts 12°
2026-05-04 16:21 25.44079 -79.12612 1891 ft 157 kts 13°
2026-05-04 16:22 25.46152 -79.12280 1896 ft 147 kts 337°
2026-05-04 16:22 25.49019 -79.14047 1899 ft 171 kts 331°
2026-05-04 16:23 25.52285 -79.15999 1897 ft 181 kts 332°
2026-05-04 16:24 25.56802 -79.18637 1896 ft 186 kts 333°
2026-05-04 16:25 25.59173 -79.19936 1710 ft 194 kts 337°
2026-05-04 16:26 25.64328 -79.22344 1410 ft 201 kts 337°
2026-05-04 16:26 25.67349 -79.24992 1400 ft 171 kts 305°
2026-05-04 16:27 25.68554 -79.27047 1398 ft 146 kts 304°
2026-05-04 16:28 25.70168 -79.29712 1390 ft 136 kts 323°
2026-05-04 16:28 25.72952 -79.29767 1374 ft 144 kts 11°
2026-05-04 16:29 25.75743 -79.27130 1414 ft 144 kts 53°
2026-05-04 16:30 25.77464 -79.24469 1409 ft 142 kts 51°
2026-05-04 16:31 25.78181 -79.22508 1408 ft 147 kts 93°
2026-05-04 16:31 25.77694 -79.19441 1407 ft 111 kts 112°
2026-05-04 16:32 25.75515 -79.19033 1057 ft 104 kts 181°
2026-05-04 16:33 25.74052 -79.19004 978 ft 102 kts 179°
2026-05-04 16:33 25.72675 -79.19221 782 ft 104 kts 207°
2026-05-04 16:34 25.71420 -79.20033 643 ft 102 kts 217°
2026-05-04 16:34 25.70889 -79.20531 605 ft 95 kts 234°
2026-05-04 16:35 25.70413 -79.21337 567 ft 92 kts 246°
2026-05-04 16:35 25.69938 -79.22885 477 ft 94 kts 270°
2026-05-04 16:36 25.69947 -79.23632 388 ft 98 kts 279°
2026-05-04 16:36 25.69976 -79.25008 122 ft 85 kts 279°
2026-05-04 16:37 25.69993 -79.26229 18 ft 59 kts 266°
2026-05-04 16:37 25.69990 -79.26602 11 ft 41 kts 277°
2026-05-04 16:37 25.69995 -79.26993 13 ft 16 kts 285°
2026-05-04 16:38 25.70082 -79.27050 16 ft 0 kts 275°
2026-05-04 16:39 25.70085 -79.27136 17 ft 12 kts 274°
2026-05-04 16:39 25.70123 -79.27184 21 ft 0 kts 291°
2026-05-04 16:40 25.70122 -79.27182 21 ft 2 kts 294°
2026-05-04 16:40 25.70122 -79.27184 21 ft 0 kts 296°